OE7BJT-13 Weather Reports


Display with metric or nautical units.
time (UTC)temp
F
wind
direction
speed
MPH
gust
MPH
rain 1hr
in
rain 24hr
in
rain mn
in
humidity
%
barometer
mb
20260506080115 59 0 0.0 0.0 0.00 0.00 0.00 67 1007.0
20260506073058 57 0 0.0 0.0 0.00 0.00 0.00 75 1008.0
20260506072053 56 0 0.0 0.0 0.00 0.00 0.00 80 1008.0
20260506071047 54 0 0.0 0.0 0.00 0.00 0.00 83 1008.0
20260506061014 52 0 0.0 0.0 0.00 0.00 0.00 89 1008.0
20260506050940 48 0 0.0 0.0 0.00 0.00 0.00 10 1009.0
20260506044928 47 0 0.0 0.0 0.00 0.00 0.00 10 1009.0
20260506043922 46 0 0.0 0.0 0.00 0.00 0.00 10 1009.0
20260506042917 46 0 0.0 0.0 0.00 0.00 0.00 10 1009.0
20260506041911 45 0 0.0 0.0 0.00 0.00 0.00 10 1009.0
20260506040905 45 0 0.0 0.0 0.00 0.00 0.00 10 1009.0
20260506035859 45 0 0.0 0.0 0.00 0.00 0.00 10 1009.0
20260506034854 45 0 0.0 0.0 0.00 0.00 0.00 10 1009.0
20260506033848 45 0 0.0 0.0 0.00 0.00 0.00 10 1009.0
20260506032842 45 0 0.0 0.0 0.00 0.00 0.00 10 1009.0
20260506031836 46 0 0.0 0.0 0.00 0.00 0.00 10 1010.0
20260506030831 46 0 0.0 0.0 0.00 0.00 0.00 10 1010.0
20260506025825 46 0 0.0 0.0 0.00 0.00 0.00 10 1010.0
20260506023813 47 0 0.0 0.0 0.00 0.00 0.00 99 1010.0
20260506021802 46 0 0.0 0.0 0.00 0.00 0.00 10 1010.0
20260506020756 46 0 0.0 0.0 0.00 0.00 0.00 10 1010.0
20260506015751 46 0 0.0 0.0 0.00 0.00 0.00 10 1010.0
20260506014745 47 0 0.0 0.0 0.00 0.00 0.00 10 1010.0
20260506013739 47 0 0.0 0.0 0.00 0.00 0.00 10 1010.0
20260506012733 47 0 0.0 0.0 0.00 0.00 0.00 10 1010.0
20260506011727 47 0 0.0 0.0 0.00 0.00 0.00 10 1010.0
20260506010722 48 0 0.0 0.0 0.00 0.00 0.00 99 1010.0
20260506005716 48 0 0.0 0.0 0.00 0.00 0.00 97 1010.0
20260506004711 48 0 0.0 0.0 0.00 0.00 0.00 10 1010.0
20260506002659 48 0 0.0 0.0 0.00 0.00 0.00 95 1010.0
20260506001654 48 0 0.0 0.0 0.00 0.00 0.00 96 1010.0
20260506000648 50 0 0.0 0.0 0.00 0.00 0.00 90 1010.0
20260505235642 49 0 0.0 0.0 0.00 0.00 0.00 94 1010.0
20260505234637 49 0 0.0 0.0 0.00 0.00 0.00 91 1010.0
20260505233631 49 0 0.0 0.0 0.00 0.00 0.00 92 1010.0
20260505232626 50 0 0.0 0.0 0.00 0.00 0.00 90 1010.0
20260505231620 50 0 0.0 0.0 0.00 0.00 0.00 87 1010.0
20260505230614 50 0 0.0 0.0 0.00 0.00 0.00 89 1010.0
20260505225609 50 0 0.0 0.0 0.00 0.00 0.00 88 1010.0
20260505224603 50 0 0.0 0.0 0.00 0.00 0.00 88 1010.0
20260505223558 50 0 0.0 0.0 0.00 0.00 0.00 87 1010.0
20260505222552 50 0 0.0 0.0 0.00 0.00 0.00 89 1010.0
20260505221546 51 0 0.0 0.0 0.00 0.00 0.00 84 1010.0
20260505220541 51 0 0.0 0.0 0.00 0.00 0.00 84 1010.0
20260505215535 51 0 0.0 0.0 0.00 0.00 0.00 83 1010.0
20260505214530 53 0 0.0 0.0 0.00 0.00 0.00 80 1010.0
20260505213524 52 0 0.0 0.0 0.00 0.00 0.00 85 1010.0
20260505212518 53 0 0.0 0.0 0.00 0.00 0.00 79 1010.0
20260505211513 53 0 0.0 0.0 0.00 0.00 0.00 81 1010.0
20260505205502 54 0 0.0 0.0 0.00 0.00 0.00 79 1009.0
20260505204456 54 0 0.0 0.0 0.00 0.00 0.00 78 1009.0
20260505203450 53 0 0.0 0.0 0.00 0.00 0.00 79 1009.0
20260505202445 55 0 0.0 0.0 0.00 0.00 0.00 72 1009.0
20260505200434 56 0 0.0 0.0 0.00 0.00 0.00 73 1009.0
20260505195428 57 0 0.0 0.0 0.00 0.00 0.00 70 1008.0
20260505194422 56 0 0.0 0.0 0.00 0.00 0.00 72 1008.0
20260505192411 59 0 0.0 0.0 0.00 0.00 0.00 61 1008.0
20260505191406 58 0 0.0 0.0 0.00 0.00 0.00 65 1008.0
20260505185355 60 0 0.0 0.0 0.00 0.00 0.00 58 1008.0
20260505184349 61 0 0.0 0.0 0.00 0.00 0.00 60 1007.0
20260505183343 60 0 0.0 0.0 0.00 0.00 0.00 64 1007.0
20260505182338 61 0 0.0 0.0 0.00 0.00 0.00 63 1007.0
20260505181332 61 0 0.0 0.0 0.00 0.00 0.00 64 1007.0
20260505180327 61 0 0.0 0.0 0.00 0.00 0.00 66 1007.0
20260505174315 64 0 0.0 0.0 0.00 0.00 0.00 61 1007.0
20260505173310 64 0 0.0 0.0 0.00 0.00 0.00 63 1007.0
20260505172306 67 0 0.0 0.0 0.00 0.00 0.00 45 1007.0
20260505171259 67 0 0.0 0.0 0.00 0.00 0.00 46 1007.0
20260505170253 68 0 0.0 0.0 0.00 0.00 0.00 43 1007.0
20260505165247 68 0 0.0 0.0 0.00 0.00 0.00 44 1007.0
20260505164242 68 0 0.0 0.0 0.00 0.00 0.00 45 1007.0
20260505163236 68 0 0.0 0.0 0.00 0.00 0.00 42 1007.0
20260505162231 69 0 0.0 0.0 0.00 0.00 0.00 40 1007.0
20260505161225 69 0 0.0 0.0 0.00 0.00 0.00 41 1007.0
20260505153203 67 0 0.0 0.0 0.00 0.00 0.00 46 1008.0
20260505152157 66 0 0.0 0.0 0.00 0.00 0.00 47 1008.0
20260505151151 67 0 0.0 0.0 0.00 0.00 0.00 45 1008.0
20260505150146 67 0 0.0 0.0 0.00 0.00 0.00 47 1008.0
20260505140112 69 0 0.0 0.0 0.00 0.00 0.00 33 1007.0
20260505125033 71 0 0.0 0.0 0.00 0.00 0.00 33 1007.0
20260505124027 71 0 0.0 0.0 0.00 0.00 0.00 33 1007.0
20260505123022 71 0 0.0 0.0 0.00 0.00 0.00 32 1007.0
20260505121011 72 0 0.0 0.0 0.00 0.00 0.00 31 1007.0
20260505115000 72 0 0.0 0.0 0.00 0.00 0.00 31 1007.0
20260505113954 73 0 0.0 0.0 0.00 0.00 0.00 29 1007.0
20260505112948 75 0 0.0 0.0 0.00 0.00 0.00 28 1007.0
20260505111943 80 0 0.0 0.0 0.00 0.00 0.00 24 1007.0
20260505110937 83 0 0.0 0.0 0.00 0.00 0.00 23 1007.0
20260505101909 78 0 0.0 0.0 0.00 0.00 0.00 27 1008.0
20260505095858 77 0 0.0 0.0 0.00 0.00 0.00 26 1008.0
20260505094852 76 0 0.0 0.0 0.00 0.00 0.00 27 1008.0
20260505093847 75 0 0.0 0.0 0.00 0.00 0.00 29 1008.0
20260505091836 74 0 0.0 0.0 0.00 0.00 0.00 31 1008.0
20260505090830 74 0 0.0 0.0 0.00 0.00 0.00 32 1009.0
20260505084819 69 0 0.0 0.0 0.00 0.00 0.00 36 1009.0
20260505083813 70 0 0.0 0.0 0.00 0.00 0.00 39 1009.0
20260505082808 66 0 0.0 0.0 0.00 0.00 0.00 42 1009.0
20260505081802 64 0 0.0 0.0 0.00 0.00 0.00 46 1009.0
20260505080756 64 0 0.0 0.0 0.00 0.00 0.00 44 1009.0